User: anonymous   Login
Location: Unspecified
(0.0000°N, 0.0000°E)
Time: 08:21:24
(UTC+00:00)
Language:

NOAA 17 - Orbit

View from above orbital plane
View from above orbital plane
View from above satellite
View from above satellite

Ground track
Ground track

The orbit data is extracted from the following two-line orbital elements,

1 27453U 02032A   14331.46999053  .00000220  00000-0  11187-3 0  8247
2 27453 098.3240 322.6645 0012580 059.2727 300.9690 14.24821934645937
Epoch (UTC): 27 November 2014 11:16:47
Eccentricity: 0.0012580
inclination: 98.3240°
perigee height: 800 km
apogee height: 818 km
right ascension of ascending node: 322.6645°
argument of perigee: 59.2727°
revolutions per day: 14.24821934
mean anomaly at epoch: 300.9690°
orbit number at epoch: 64593

The dashed part of the orbit path shows where the satellite is in the earth's shadow,  

DLR